カタログに戻る

STARLINK-32401

運用中通信VLEO
NORAD 61865·PAYLOAD·🇺🇸 United States

打ち上げ Nov 7, 2024 から Cape Canaveral Space Force Station

Loading…

次のパス (今後24時間)

TLE

最新Source: CelesTrak SupGP

元期: Sep 15, 2026, 02:53 UTC

1 61865C 24202W   26258.12062500 -.00022275  00000+0 -80709-3 0  2589
2 61865  43.0008 248.5369 0001426 271.6701 120.5471 15.27577975    13

AllMySatでSTARLINK-32401をリアルタイム追跡

Download on the App Store